RADUGA-1M 3

Last updated on Fri Jun 19 2026 17:09:31 GMT+0000 (Coordinated Universal Time)

1 39375U 13062A 26169.79836442 .00000144 00000+0 00000+0 0 9993 2 39375 5.9627 72.3351 0001803 267.8367 249.2637 1.00273348 46124
UTC large
Height (km)
Speed (km/s)
/
Latitude / Longitude
Inclination (degrees)
Orbital Period (minutes)
Azimuth
Elevation
Range (km)
Doppler Factor

Next 0 passes for location: London (51.5072 / 0.1276)

No passes found over London.
RADUGA-1M 3